Overview Statistics Trail Chart Weather Telemetry Raw packets
 

This is the latest recevied weather packets stored in our database for station/object CW79215. If no packets are shown the sender has not sent any weather packets the latest 10 day(s).

<< 27 28 29 30 31 32 33 >>
Time Temp. Humidity Pressure Rain* Wind** Luminosity Snow
1788060027 17.22° C 84% 1026.8 hPa - - - -
1788059126 17.22° C 83% 1026.8 hPa - - - -
1788058226 17.22° C 84% 1026.8 hPa - - - -
1788057328 17.22° C 82% 1026.7 hPa - - - -
1788056428 17.78° C 82% 1026.5 hPa - - - -
1788055528 17.22° C 84% 1026.6 hPa - - - -
1788054628 17.22° C 83% 1026.7 hPa - - - -
1788053728 17.22° C 84% 1026.7 hPa - - - -
1788052828 17.22° C 82% 1026.5 hPa - - - -
1788051928 17.22° C 83% 1026.6 hPa - - - -
1788051028 17.22° C 82% 1026.6 hPa - - - -
1788050127 17.78° C 80% 1026.8 hPa - - - -
1788049227 17.78° C 76% 1027 hPa - - - -
1788048327 17.78° C 77% 1026.9 hPa - - - -
1788047428 17.78° C 75% 1026.9 hPa - - - -
1788046527 18.33° C 74% 1026.9 hPa - - - -
1788045627 18.89° C 72% 1026.7 hPa - - - -
1788044736 18.89° C 63% 1026.5 hPa - - - -
1788043827 18.89° C 68% 1026.4 hPa - - - -
1788042927 18.89° C 68% 1026.2 hPa - - - -
1788042027 18.89° C 65% 1026.1 hPa - - - -
1788041127 18.89° C 64% 1026.1 hPa - - - -
1788040226 18.33° C 64% 1026 hPa - - - -
1788039326 18.89° C 65% 1026 hPa - - - -
1788038425 18.89° C 64% 1026 hPa - - - -

* Rain since midnight (hover to see other rain measurements)
** Current wind speed in m/s (hover to see current wind gust speed)